sat.trackr.live / text

‹ back to catalog

ONEWEB-0438

NORAD 51634 · 2022-012N

PAYLOAD ACTIVE UNKNOWN

§ Identity

Operator
Country
UK
Launch date
2022-02-10
Launch site
FRGUI
Launch vehicle
Mass (kg)
RCS (m²)

Purposes: comms

External: N2YO · Heavens-Above · Gunter

§ Orbital elements

Epoch: 2026-09-20T02:12:30.799296Z

Period
109.89 min
Inclination
87.8898°
Eccentricity
0.0001839
Mean motion
13.10376552 rev/d
Perigee alt
1,220.3 km
Apogee alt
1,223.1 km
Semi-major
7,599.8 km
B*
-2.9775e-3
RAAN
17.3854°
Arg perigee
106.5794°
Mean anomaly
253.5535°
Rev number
22,177

§ Raw data

ONEWEB-04381 51634U 22012N   26263.09202314 -.00001027  00000+0 -29775-2 0  99992 51634  87.8898  17.3854 0001839 106.5794 253.5535 13.10376552221770

JSON: /api/v1/satellites/51634 · /tle

For live sub-satellite position, see the globe view (requires WebGL).

§ Visibility from observer

Set your observer location to see the next 7 days of passes ≥ 10°. The values pass through the URL so the page stays shareable.

No JS? Fill the form by hand. The geolocation button needs JavaScript.